This is the latest recevied weather packets stored in our database for station/object AB4KN. If no packets are shown the sender has not sent any weather packets the latest 10 day(s).
| Time | Temp. | Humidity | Pressure | Rain* | Wind** | Luminosity | Snow |
|---|---|---|---|---|---|---|---|
| 1778159904 | 18.33° C | 89% | 1016.6 hPa | 0 mm | - | 42 W/m² | - |
| 1778159600 | 18.89° C | 89% | 1016.5 hPa | 0 mm | - | 57 W/m² | - |
| 1778159297 | 18.89° C | 89% | 1016.6 hPa | 1.27 mm | - | 19 W/m² | - |
| 1778158994 | 18.89° C | 89% | 1016.4 hPa | 3.05 mm | - | 45 W/m² | - |
| 1778158693 | 19.44° C | 89% | 1016.3 hPa | 6.1 mm | - | 14 W/m² | - |
| 1778158390 | 20° C | 89% | 1015.9 hPa | 7.11 mm | - | 4 W/m² | - |
| 1778158087 | 20° C | 89% | 1015.9 hPa | 3.05 mm | - | 16 W/m² | - |
| 1778157783 | 20° C | 89% | 1016.1 hPa | 1.78 mm | - | 6 W/m² | - |
| 1778157482 | 20° C | 89% | 1015.7 hPa | 1.78 mm | - | 8 W/m² | - |
| 1778157179 | 20° C | 89% | 1015.7 hPa | 0 mm | - | 12 W/m² | - |
| 1778156875 | 20° C | 89% | 1015.8 hPa | 0 mm | - | 3 W/m² | - |
| 1778156570 | 20° C | 89% | 1015.4 hPa | 0 mm | - | 6 W/m² | - |
| 1778156266 | 20° C | 89% | 1015.4 hPa | 0 mm | - | 6 W/m² | - |
| 1778155962 | 20° C | 89% | 1015.5 hPa | 0 mm | - | 3 W/m² | - |
| 1778155659 | 20° C | 89% | 1015.3 hPa | 0 mm | - | 0 W/m² | - |
| 1778155356 | 20° C | 89% | 1015.2 hPa | 1.27 mm | - | 1 W/m² | - |
| 1778155052 | 20° C | 89% | 1015 hPa | 3.05 mm | - | 1 W/m² | - |
| 1778154748 | 20° C | 89% | 1014.9 hPa | 6.6 mm | - | 0 W/m² | - |
| 1778154443 | 20° C | 89% | 1015.1 hPa | 4.83 mm | - | 0 W/m² | - |
| 1778154141 | 20° C | 89% | 1015.2 hPa | 1.27 mm | - | 0 W/m² | - |
| 1778153838 | 20° C | 89% | 1015.1 hPa | 1.27 mm | - | 0 W/m² | - |
| 1778153535 | 20° C | 89% | 1014.8 hPa | 0 mm | - | 0 W/m² | - |
| 1778153233 | 20° C | 89% | 1015 hPa | 0 mm | - | 0 W/m² | - |
| 1778152930 | 20° C | 89% | 1014.8 hPa | 0 mm | - | 0 W/m² | - |
| 1778152627 | 20° C | 89% | 1014.5 hPa | 0 mm | - | 0 W/m² | - |
* Rain latest hour (hover to see other rain measurements)
** Current wind speed in m/s (hover to see current wind gust speed)